User: anonymous   Login
Location: Unspecified
(0.0000°N, 0.0000°E)
Time: 01:39:35
(UTC+00:00)
Language:

USA 264 - Orbit

View from above orbital plane
View from above orbital plane
View from above satellite
View from above satellite

Ground track
Ground track

The orbit data is extracted from the following two-line orbital elements,

1 40964U 15058A   17097.79978903 0.00000000  00000-0  00000-0 0    01
2 40964  63.4377 339.8858 0081000 176.1664 183.8336 13.40729128    08
Epoch (UTC): 07 April 2017 19:11:41
Eccentricity: 0.0081000
inclination: 63.4377°
perigee height: 1046 km
apogee height: 1167 km
right ascension of ascending node: 339.8858°
argument of perigee: 176.1664°
revolutions per day: 13.40729128
mean anomaly at epoch: 183.8336°
orbit number at epoch: 0

The dashed part of the orbit path shows where the satellite is in the earth's shadow,  

DLR